ROMMA est une association bénévole à but non lucratif. Votre soutien est indispensable : ADHERER à ROMMA ou FAIRE un DON

Briord - (01, Ain)

Bugey (281 m)   Longitude: 05° 29' 13" E   Latitude: 45° 46' 37" N Station partenaire n°15
 

Détail journalier du     <<     >>

Température Precipitation Humidité Pression Vent Dir Rafale Dir. rafale Ensol.
Heure (°C) (mm) (%) (hPa) (km/h) (km/h) (min)
01:00 22.208110121E11E0
02:00 22.306310113E16ENE0
03:00 20.207410121---10S0
04:00 18.3079101103E0
05:00 16.5085101202SE0
06:00 16.9084101205O0
07:00 16.9085101208SE0
08:00 16.4086101203SE0
09:00 16.7087101200---0
10:00 19.408310121---10O0
11:00 22.507310131ONO11O0
12:00 23.7071101206O0
13:00 26.106510121ONO11O0
14:00 27.305510123SSO13OSO25
15:00 28.805410123O18NO60
16:00 29.905110126NO21NO60
17:00 31.204510116NO23N60
18:00 31.404310117NO23NO60
19:00 31.504110119NO26NNO60
20:00 30.104310108NO24O60
21:00 30.804110117NO23NO60
22:00 29.704210114NO19ONO5
23:00 24.707710123NNO19NNO0
minuit 20.00.288101205SE0

Graphique du 07-07-2019

 

Serveur OMMA